When you browse on this site, cookies collect data to enhance your experience and personalize the content and advertising you see.
Visit our Privacy Policy to learn more. By continuing to use the site, you agree to this use of cookies and data.
  • In Netherlands
  • List of Countries
  • For 7 days
  • Water Temperature
  • Satellite Maps
  • Weather Map
  • Weather Widgets
  • user-avatar
    Login

    Hourly Weather Wronki

    Today, 23 April, Tuesday

    Time Temperature Precipitation Wind Pressure Humidity
    00:00 +10°C° 0 mm 6 mps 757 mmHg 60%
    01:00 +9°C° 0 mm 5 mps 756 mmHg 62%
    02:00 +8°C° 0 mm 6 mps 756 mmHg 61%
    03:00 +8°C° 0 mm 6 mps 756 mmHg 60%
    04:00 +8°C° 0 mm 6 mps 756 mmHg 59%
    05:00 +8°C° 0 mm 7 mps 756 mmHg 59%
    06:00 +9°C° 0 mm 7 mps 755 mmHg 58%
    07:00 +9°C° 0 mm 7 mps 755 mmHg 58%
    08:00 +11°C° 0 mm 8 mps 755 mmHg 56%
    09:00 +12°C° 0 mm 8 mps 755 mmHg 53%
    10:00 +15°C° 0 mm 9 mps 754 mmHg 51%
    11:00 +16°C° 0 mm 9 mps 754 mmHg 50%
    12:00 +17°C° 0 mm 9 mps 754 mmHg 49%
    13:00 +18°C° 0 mm 9 mps 753 mmHg 48%
    14:00 +18°C° 0.2 mm 9 mps 753 mmHg 50%
    15:00 +18°C° 0.2 mm 8 mps 753 mmHg 52%
    16:00 +18°C° 0.2 mm 8 mps 752 mmHg 55%
    17:00 +16°C° 0.3 mm 8 mps 752 mmHg 63%
    18:00 +14°C° 0.3 mm 7 mps 752 mmHg 71%
    19:00 +11°C° 0.3 mm 7 mps 752 mmHg 80%
    20:00 +11°C° 0 mm 6 mps 752 mmHg 79%
    21:00 +11°C° 0 mm 6 mps 752 mmHg 79%
    22:00 +12°C° 0 mm 5 mps 752 mmHg 79%
    23:00 +11°C° 0 mm 6 mps 752 mmHg 78%

    Tomorrow, 24 April, Wednesday

    Time Temperature Precipitation Wind Pressure Humidity
    00:00 +11°C° 0 mm 6 mps 752 mmHg 77%
    01:00 +10°C° 0 mm 6 mps 751 mmHg 77%
    02:00 +10°C° 0 mm 6 mps 751 mmHg 77%
    03:00 +10°C° 0 mm 6 mps 751 mmHg 77%
    04:00 +9°C° 0 mm 6 mps 751 mmHg 77%
    05:00 +10°C° 0 mm 6 mps 751 mmHg 75%
    06:00 +11°C° 0 mm 7 mps 751 mmHg 73%
    07:00 +11°C° 0 mm 7 mps 751 mmHg 71%
    08:00 +14°C° 0 mm 7 mps 751 mmHg 67%
    09:00 +16°C° 0 mm 7 mps 751 mmHg 64%
    10:00 +17°C° 0 mm 7 mps 752 mmHg 60%
    11:00 +18°C° 0 mm 7 mps 752 mmHg 59%
    12:00 +18°C° 0 mm 7 mps 752 mmHg 58%
    13:00 +20°C° 0 mm 7 mps 752 mmHg 57%
    14:00 +20°C° 0 mm 6 mps 752 mmHg 57%
    15:00 +21°C° 0 mm 6 mps 752 mmHg 56%
    16:00 +21°C° 0 mm 6 mps 752 mmHg 56%
    17:00 +20°C° 0 mm 5 mps 752 mmHg 62%
    18:00 +19°C° 0 mm 5 mps 752 mmHg 68%
    19:00 +17°C° 0 mm 4 mps 752 mmHg 74%
    20:00 +17°C° 0 mm 4 mps 751 mmHg 74%
    21:00 +15°C° 0 mm 5 mps 751 mmHg 75%
    22:00 +15°C° 0 mm 5 mps 751 mmHg 76%
    23:00 +14°C° 0 mm 5 mps 751 mmHg 78%

    Day after tomorrow, 25 April, Thursday

    Time Temperature Precipitation Wind Pressure Humidity
    00:00 +14°C° 0 mm 4 mps 752 mmHg 81%
    01:00 +13°C° 0 mm 4 mps 752 mmHg 83%
    02:00 +13°C° 0 mm 4 mps 752 mmHg 86%
    03:00 +12°C° 0 mm 3 mps 752 mmHg 90%
    04:00 +12°C° 0 mm 3 mps 752 mmHg 93%
    05:00 +13°C° 0 mm 3 mps 753 mmHg 90%
    06:00 +14°C° 0 mm 3 mps 753 mmHg 86%
    07:00 +16°C° 0 mm 2 mps 754 mmHg 83%
    08:00 +18°C° 0 mm 2 mps 754 mmHg 76%
    09:00 +20°C° 0 mm 2 mps 754 mmHg 69%
    10:00 +21°C° 0 mm 2 mps 754 mmHg 62%
    11:00 +24°C° 0 mm 1 mps 754 mmHg 57%
    12:00 +26°C° 0 mm 1 mps 754 mmHg 52%
    13:00 +25°C° 0 mm 0 mps 754 mmHg 47%
    14:00 +27°C° 0 mm 1 mps 754 mmHg 46%
    15:00 +27°C° 0 mm 1 mps 754 mmHg 45%
    16:00 +27°C° 0 mm 1 mps 754 mmHg 44%
    17:00 +25°C° 0 mm 1 mps 754 mmHg 52%
    18:00 +23°C° 0 mm 2 mps 754 mmHg 60%
    19:00 +21°C° 0 mm 2 mps 754 mmHg 68%
    20:00 +20°C° 0 mm 2 mps 754 mmHg 72%
    21:00 +19°C° 0 mm 2 mps 754 mmHg 76%
    22:00 +18°C° 0 mm 2 mps 754 mmHg 79%
    23:00 +17°C° 0 mm 2 mps 754 mmHg 81%

    26 April, Friday

    Time Temperature Precipitation Wind Pressure Humidity
    00:00 +17°C° 0 mm 2 mps 753 mmHg 83%
    01:00 +16°C° 0 mm 3 mps 753 mmHg 85%
    02:00 +16°C° 0 mm 3 mps 753 mmHg 88%
    03:00 +14°C° 0 mm 3 mps 752 mmHg 90%
    04:00 +13°C° 0 mm 3 mps 752 mmHg 92%
    05:00 +14°C° 0 mm 3 mps 752 mmHg 88%
    06:00 +16°C° 0 mm 3 mps 752 mmHg 83%
    07:00 +17°C° 0 mm 3 mps 751 mmHg 78%
    08:00 +19°C° 0 mm 3 mps 751 mmHg 71%
    09:00 +21°C° 0 mm 3 mps 751 mmHg 64%
    10:00 +24°C° 0 mm 3 mps 751 mmHg 56%
    11:00 +25°C° 0 mm 2 mps 751 mmHg 52%
    12:00 +26°C° 0 mm 2 mps 751 mmHg 49%
    13:00 +27°C° 0 mm 1 mps 750 mmHg 45%
    14:00 +27°C° 0.1 mm 2 mps 750 mmHg 46%
    15:00 +27°C° 0.1 mm 2 mps 750 mmHg 48%
    16:00 +27°C° 0.1 mm 3 mps 750 mmHg 50%
    17:00 +24°C° 0.1 mm 3 mps 750 mmHg 61%
    18:00 +21°C° 0.1 mm 4 mps 750 mmHg 71%
    19:00 +19°C° 0.1 mm 5 mps 750 mmHg 82%
    20:00 +18°C° 0.3 mm 4 mps 750 mmHg 85%
    21:00 +17°C° 0.3 mm 4 mps 750 mmHg 89%
    22:00 +15°C° 0.3 mm 4 mps 750 mmHg 92%
    23:00 +15°C° 0.2 mm 4 mps 750 mmHg 92%

    27 April, Saturday

    Time Temperature Precipitation Wind Pressure Humidity
    00:00 +14°C° 0.2 mm 4 mps 751 mmHg 91%
    01:00 +14°C° 0.2 mm 5 mps 751 mmHg 91%
    02:00 +13°C° 0.1 mm 5 mps 751 mmHg 89%
    03:00 +12°C° 0.1 mm 5 mps 751 mmHg 87%
    04:00 +10°C° 0.1 mm 5 mps 751 mmHg 85%
    05:00 +10°C° 0 mm 5 mps 751 mmHg 82%
    06:00 +10°C° 0 mm 6 mps 752 mmHg 78%
    07:00 +10°C° 0 mm 6 mps 752 mmHg 74%
    08:00 +10°C° 0.9 mm 6 mps 752 mmHg 77%
    09:00 +10°C° 0.9 mm 5 mps 753 mmHg 80%
    10:00 +10°C° 0.9 mm 5 mps 753 mmHg 82%
    11:00 +12°C° 0.6 mm 5 mps 753 mmHg 79%
    12:00 +13°C° 0.6 mm 5 mps 753 mmHg 76%
    13:00 +14°C° 0.6 mm 5 mps 753 mmHg 73%
    14:00 +14°C° 0.1 mm 5 mps 753 mmHg 72%
    15:00 +14°C° 0.1 mm 4 mps 753 mmHg 72%
    16:00 +14°C° 0.1 mm 4 mps 753 mmHg 71%
    17:00 +13°C° 0.2 mm 4 mps 753 mmHg 74%
    18:00 +13°C° 0.2 mm 3 mps 754 mmHg 76%
    19:00 +12°C° 0.2 mm 3 mps 754 mmHg 79%
    20:00 +12°C° 0.2 mm 3 mps 754 mmHg 81%
    21:00 +11°C° 0.2 mm 3 mps 754 mmHg 84%
    22:00 +11°C° 0.2 mm 3 mps 754 mmHg 87%
    23:00 +11°C° 0.4 mm 3 mps 755 mmHg 89%

    28 April, Sunday

    Time Temperature Precipitation Wind Pressure Humidity
    00:00 +10°C° 0.4 mm 3 mps 755 mmHg 91%
    01:00 +10°C° 0.4 mm 2 mps 755 mmHg 93%
    02:00 +10°C° 0.1 mm 2 mps 755 mmHg 94%
    03:00 +9°C° 0.1 mm 3 mps 755 mmHg 95%
    04:00 +9°C° 0.1 mm 3 mps 755 mmHg 96%
    05:00 +9°C° 0 mm 3 mps 756 mmHg 94%
    06:00 +10°C° 0 mm 3 mps 756 mmHg 91%
    07:00 +11°C° 0 mm 3 mps 756 mmHg 88%
    08:00 +12°C° 0.2 mm 4 mps 757 mmHg 81%
    09:00 +13°C° 0.2 mm 4 mps 757 mmHg 73%
    10:00 +14°C° 0.2 mm 4 mps 757 mmHg 66%
    11:00 +15°C° 0.2 mm 4 mps 757 mmHg 61%
    12:00 +17°C° 0.2 mm 4 mps 757 mmHg 57%
    13:00 +17°C° 0.2 mm 4 mps 757 mmHg 52%
    14:00 +17°C° 0.4 mm 4 mps 757 mmHg 55%
    15:00 +15°C° 0.4 mm 4 mps 757 mmHg 57%
    16:00 +15°C° 0.4 mm 4 mps 757 mmHg 60%
    17:00 +14°C° 0.1 mm 3 mps 757 mmHg 64%
    18:00 +12°C° 0.1 mm 3 mps 757 mmHg 68%
    19:00 +12°C° 0.1 mm 2 mps 757 mmHg 73%
    20:00 +10°C° 0 mm 2 mps 758 mmHg 75%
    21:00 +9°C° 0 mm 2 mps 758 mmHg 78%
    22:00 +8°C° 0 mm 2 mps 758 mmHg 81%
    23:00 +8°C° 0 mm 2 mps 758 mmHg 85%
    Show more